Regional Weather Roundup
Issued by NWS Cleveland, OH

Home | Current Version | Previous Version | Graphics & Text | Print | Product List | Glossary On
Versions: 1 2 3 4 5 6 7 8 9 10 11 12 13 14 15 16 17 18 19 20 21 22 23 24 25 26 27 28 29 30 31 32 33 34 35 36 37 38 39 40 41 42 43 44 45 46 47 48 49 50
000
ASUS41 KCLE 230600
RWRCLE
OHIO REGIONAL WEATHER ROUNDUP
NATIONAL WEATHER SERVICE WILMINGTON, OH
200 AM EDT THU MAR 23 2017

NOTE: "FAIR" INDICATES FEW OR NO CLOUDS BELOW 12,000 FEET WITH NO
SIGNIFICANT WEATHER AND/OR OBSTRUCTIONS TO VISIBILITY.

OHZ001>008-015>018-024>027-034-035-043-044-230700-
   NORTHWEST OHIO

CITY           SKY/WX    TMP DP  RH WIND       PRES   REMARKS
DEFIANCE       FAIR      22  15  75 E3        30.53S
FINDLAY        FAIR      24  15  68 E5        30.51S WCI  18
TOLEDO EXPRESS FAIR      23  15  71 CALM      30.54R
TOLEDO EXEC    FAIR      23  16  74 E5        30.55S WCI  17
LIMA           FAIR      23  17  78 E7        30.49F WCI  15
$$

OHZ009>014-019>023-028>033-038-089-230700-
   NORTHEAST OHIO

CITY           SKY/WX    TMP DP  RH WIND       PRES   REMARKS
CLE-HOPKINS    FAIR      23  14  68 CALM      30.57S
CLE-LAKEFRONT  FAIR      26  16  65 CALM      30.55S
CUY CO. ARPT   NOT AVBL
LORAIN-ELYRIA  FAIR      20  14  77 CALM      30.54F
ASHTABULA      FAIR      20  15  81 CALM      30.53S
AKRON-CANTON   FAIR      22  10  60 NE5       30.51S WCI  16
WOOSTER        NOT AVBL
MANSFIELD      FAIR      19  13  77 E5        30.49F WCI  12
YOUNGSTOWN     FAIR      19  12  74 CALM      30.51S
$$

OHZ042-051>053-060>062-070>072-077>081-230700-
  SOUTHWEST OHIO

CITY           SKY/WX    TMP DP  RH WIND       PRES   REMARKS
CINC-COVINGTON FAIR      32  19  58 E12       30.45F WCI  23
CINC-LUNKEN    FAIR      29  21  72 NE6       30.50S WCI  23
HAMILTON       FAIR      28  20  71 E3        30.49F
DAYTON         NOT AVBL
WRIGHT-PAT AFB FAIR      25  17  72 NE8       30.49S WCI  16
DAYTON GENERAL FAIR      27  19  72 E10       30.47S WCI  17
WILMINGTON     FAIR      27  21  78 NE8       30.47S WCI  19
$$

OHZ036-037-039>041-045>050-054>059-063>069-073>076-082>088-230700-
  CENTRAL AND SOUTHEAST OHIO

CITY           SKY/WX    TMP DP  RH WIND       PRES   REMARKS
COLUMBUS       FAIR      26  14  60 NE6       30.51S WCI  19
OSU AIRPORT    FAIR      23  15  71 E7        30.50F WCI  15
BOLTON FIELD   NOT AVBL
RICKENBACK AFB NOT AVBL
NEWARK         FAIR      26  12  55 NE3       30.51S
MARION         FAIR      20  14  77 E6        30.51F WCI  12
LANCASTER      FAIR      27  17  66 NE5       30.51S WCI  22
ZANESVILLE     FAIR      26  11  52 N5        30.51S WCI  20
NEW PHILLY     FAIR      24  12  60 CALM      30.54R
$$



USA.gov is the U.S. government's official web portal to all federal, state and local government web resources and services.